Inverness, FL

5:01 PM EDT on June 25, 2017 (GMT -0400)
Inverness

Weather History for KINF - March, 2014

Change the Weather History Date:

Friday, March 14, 2014

  Actual Average (KBKV) Record (KBKV)
Temperature  
Mean Temperature 55 °F -  
Max Temperature 75 °F 74 °F 86 °F (2015)
Min Temperature 35 °F 50 °F 32 °F (1998)
Degree Days  
Heating Degree Days 10    
Growing Degree Days 5 (Base 50)    
Moisture  
Dew Point 40 °F    
Average Humidity 62    
Maximum Humidity 100    
Minimum Humidity 29    
Precipitation  
Precipitation 0.00 in - - ()
Sea Level Pressure  
Sea Level Pressure 30.25 in    
Wind  
Wind Speed 2 mph (ESE)    
Max Wind Speed 12 mph    
Max Gust Speed -    
Visibility 8 miles    
Events      
Averages and records for this station are not official NWS values.
T = Trace of Precipitation, MM = Missing Value Source: NWS Daily Summary

Daily Weather History Graph

Daily Weather History Graph

Search for Another Location

Airport or City:

Trip Planner

Search our weather history database for the weather conditions in past years. The results will help you decide how hot, cold, wet, or windy it might be!

Date:

Astronomy

Mar. 14, 2014 Rise Set
Actual Time 7:40 AM EDT 7:37 PM EDT
Civil Twilight 7:16 AM EDT 8:00 PM EDT
Nautical Twilight 6:49 AM EDT 8:28 PM EDT
Astronomical Twilight 6:21 AM EDT 8:55 PM EDT
Moon 6:03 PM EDT (3/14) 6:12 AM EDT (3/14)
Length of Visible Light 12h 44m
Length of Day
11h 57m
Waxing Gibbous, 96% of the Moon is Illuminated
Mar 14
Waxing Gibbous
Mar 16
Full
Mar 23
Last Quarter
Mar 30
New
Apr 7
First Quarter

Hourly Weather History & Observations

Time (EDT) Temp. Dew Point Humidity Pressure Visibility Wind Dir Wind Speed Gust Speed Precip Events Conditions
12:15 AM 46.4 °F 35.6 °F 66% 30.26 in 10.0 mi Calm Calm - N/A   Clear
12:35 AM 44.6 °F 35.6 °F 71% 30.26 in 10.0 mi Calm Calm - N/A   Clear
12:55 AM 44.6 °F 35.6 °F 71% 30.27 in 10.0 mi Calm Calm - N/A   Clear
1:15 AM 42.8 °F 35.6 °F 76% 30.27 in 10.0 mi Calm Calm - N/A   Clear
1:35 AM 41.0 °F 35.6 °F 81% 30.27 in 10.0 mi Calm Calm - N/A   Clear
1:55 AM 41.0 °F 35.6 °F 81% 30.27 in 10.0 mi Calm Calm - N/A   Clear
2:15 AM 39.2 °F 35.6 °F 87% 30.27 in 10.0 mi Calm Calm - N/A   Clear
2:35 AM 37.4 °F 35.6 °F 93% 30.26 in 10.0 mi Calm Calm - N/A   Clear
2:55 AM 37.4 °F 35.6 °F 93% 30.26 in 10.0 mi Calm Calm - N/A   Clear
3:15 AM 37.4 °F 35.6 °F 93% 30.26 in 10.0 mi Calm Calm - N/A   Clear
3:35 AM 37.4 °F 35.6 °F 93% 30.26 in 10.0 mi Calm Calm - N/A   Clear
3:55 AM 37.4 °F 35.6 °F 93% 30.25 in 10.0 mi Calm Calm - N/A   Clear
4:35 AM 35.6 °F 35.6 °F 100% 30.25 in 10.0 mi Calm Calm - N/A   Clear
4:55 AM 35.6 °F 35.6 °F 100% 30.25 in 10.0 mi Calm Calm - N/A   Clear
5:15 AM 35.6 °F 35.6 °F 100% 30.25 in 10.0 mi Calm Calm - N/A   Clear
5:35 AM 35.6 °F 35.6 °F 100% 30.26 in 10.0 mi Calm Calm - N/A   Clear
5:55 AM 35.6 °F 35.6 °F 100% 30.26 in 10.0 mi Calm Calm - N/A   Clear
6:15 AM 35.6 °F 35.6 °F 100% 30.27 in 10.0 mi Calm Calm - N/A   Clear
6:35 AM 35.6 °F 33.8 °F 93% 30.27 in 10.0 mi Calm Calm - N/A   Clear
6:55 AM 35.6 °F 33.8 °F 93% 30.28 in 10.0 mi Calm Calm - N/A   Clear
7:15 AM 35.6 °F 33.8 °F 93% 30.28 in 10.0 mi Calm Calm - N/A   Clear
7:35 AM 35.6 °F 33.8 °F 93% 30.28 in 10.0 mi Calm Calm - N/A   Clear
7:55 AM 35.6 °F 33.8 °F 93% 30.29 in 10.0 mi Calm Calm - N/A   Clear
8:15 AM 35.6 °F 33.8 °F 93% 30.29 in 10.0 mi Calm Calm - N/A   Clear
8:35 AM 39.2 °F 37.4 °F 93% 30.29 in 10.0 mi Calm Calm - N/A   Clear
8:55 AM 44.6 °F 41.0 °F 87% 30.30 in 10.0 mi Calm Calm - N/A   Clear
9:15 AM 51.8 °F 39.2 °F 62% 30.31 in 10.0 mi ENE 5.8 mph - N/A   Clear
9:35 AM 53.6 °F 37.4 °F 54% 30.31 in 10.0 mi NE 4.6 mph - N/A   Clear
9:55 AM 55.4 °F 37.4 °F 51% 30.32 in 10.0 mi NE 8.1 mph - N/A   Clear
10:15 AM 59.0 °F 37.4 °F 45% 30.32 in 10.0 mi ENE 3.5 mph - N/A   Clear
10:35 AM 60.8 °F 37.4 °F 42% 30.32 in 7.0 mi East 8.1 mph - N/A   Clear
10:55 AM 62.6 °F 41.0 °F 45% 30.32 in 5.0 mi East 3.5 mph - N/A   Haze
11:15 AM 62.6 °F 41.0 °F 45% 30.32 in 5.0 mi ESE 5.8 mph - N/A   Haze
11:35 AM 64.4 °F 41.0 °F 42% 30.32 in 7.0 mi East 10.4 mph - N/A   Clear
11:55 AM 66.2 °F 42.8 °F 43% 30.31 in 7.0 mi East 8.1 mph - N/A   Clear
12:15 PM 68.0 °F 42.8 °F 40% 30.31 in 5.0 mi SE 9.2 mph - N/A   Haze
12:35 PM 68.0 °F 42.8 °F 40% 30.31 in 5.0 mi East 11.5 mph - N/A   Haze
12:55 PM 68.0 °F 42.8 °F 40% 30.30 in 5.0 mi SE 6.9 mph - N/A   Haze
1:15 PM 69.8 °F 42.8 °F 38% 30.31 in 7.0 mi ESE 6.9 mph - N/A   Clear
1:35 PM 71.6 °F 42.8 °F 35% 30.30 in 7.0 mi SE 3.5 mph - N/A   Clear
1:55 PM 71.6 °F 42.8 °F 35% 30.28 in 7.0 mi SE 8.1 mph - N/A   Clear
2:15 PM 71.6 °F 42.8 °F 35% 30.27 in 5.0 mi East 6.9 mph - N/A   Haze
2:35 PM 73.4 °F 42.8 °F 33% 30.26 in 7.0 mi East 6.9 mph - N/A   Clear
2:55 PM 73.4 °F 42.8 °F 33% 30.25 in 7.0 mi SE 6.9 mph - N/A   Clear
3:15 PM 73.4 °F 42.8 °F 33% 30.24 in 7.0 mi East 4.6 mph - N/A   Clear
3:35 PM 73.4 °F 41.0 °F 31% 30.23 in 7.0 mi South 6.9 mph - N/A   Clear
3:55 PM 73.4 °F 41.0 °F 31% 30.21 in 7.0 mi South 4.6 mph - N/A   Clear
4:15 PM 75.2 °F 41.0 °F 29% 30.20 in 7.0 mi South 6.9 mph - N/A   Clear
4:35 PM 75.2 °F 42.8 °F 31% 30.19 in 7.0 mi SSE 9.2 mph - N/A   Clear
4:55 PM 75.2 °F 41.0 °F 29% 30.18 in 7.0 mi SE 4.6 mph - N/A   Clear
5:15 PM 75.2 °F 41.0 °F 29% 30.18 in 7.0 mi South 5.8 mph - N/A   Clear
5:35 PM 73.4 °F 41.0 °F 31% 30.17 in 5.0 mi SSE 3.5 mph - N/A   Haze
5:55 PM 73.4 °F 41.0 °F 31% 30.17 in 7.0 mi SE 6.9 mph - N/A   Clear
6:15 PM 73.4 °F 41.0 °F 31% 30.16 in 7.0 mi ESE 4.6 mph - N/A   Clear
6:35 PM 71.6 °F 41.0 °F 33% 30.16 in 7.0 mi ESE 3.5 mph - N/A   Clear
6:55 PM 71.6 °F 42.8 °F 35% 30.17 in 7.0 mi Calm Calm - N/A   Clear
7:15 PM 69.8 °F 44.6 °F 40% 30.17 in 7.0 mi Calm Calm - N/A   Clear
7:35 PM 64.4 °F 44.6 °F 49% 30.17 in 7.0 mi Calm Calm - N/A   Clear
7:55 PM 64.4 °F 44.6 °F 49% 30.19 in 7.0 mi Calm Calm - N/A   Clear
8:15 PM 64.4 °F 44.6 °F 49% 30.19 in 7.0 mi West 3.5 mph - N/A   Clear
8:35 PM 62.6 °F 46.4 °F 55% 30.20 in 10.0 mi Calm Calm - N/A   Clear
8:55 PM 60.8 °F 46.4 °F 59% 30.20 in 10.0 mi Calm Calm - N/A   Clear
9:15 PM 59.0 °F 46.4 °F 63% 30.20 in 10.0 mi Calm Calm - N/A   Clear
9:35 PM 59.0 °F 46.4 °F 63% 30.21 in 10.0 mi Calm Calm - N/A   Clear
9:55 PM 55.4 °F 46.4 °F 72% 30.21 in 7.0 mi Calm Calm - N/A   Clear
10:15 PM 55.4 °F 46.4 °F 72% 30.22 in 10.0 mi Calm Calm - N/A   Clear
10:35 PM 53.6 °F 46.4 °F 77% 30.23 in 10.0 mi Calm Calm - N/A   Clear
10:55 PM 53.6 °F 46.4 °F 77% 30.23 in 10.0 mi Calm Calm - N/A   Clear
11:15 PM 53.6 °F 46.4 °F 77% 30.23 in 10.0 mi Calm Calm - N/A   Clear
11:35 PM 51.8 °F 46.4 °F 82% 30.23 in 10.0 mi Calm Calm - N/A   Clear
11:55 PM 51.8 °F 46.4 °F 82% 30.22 in 10.0 mi Calm Calm - N/A   Clear